Location: Jarosław
(50.0191°N, 22.6835°E)
Time: 04:46:07
(UTC+01:00)

ISS - Pass Details

Date: 01 February 2019
Orbit: 403 x 411 km, 51.6° (Epoch: 20 February)

Event Time Altitude Azimuth Distance (km) Brightness Sun altitude
Rises 17:19:58 0° 270° (W) 2,333 1.8 -9.4°
Reaches altitude 10° 17:22:04 10° 273° (W) 1,475 0.4 -9.7°
Maximum altitude 17:25:21 64° 356° (N) 459 -3.6 -10.2°
Enters shadow 17:27:48 17° 76° (ENE) 1,142 -2.2 -10.6°
